| time (UTC) | temp C | wind direction | speed KPH | gust KPH | rain 1hr cm | rain 24hr cm | rain mn cm | humidity % | barometer mb |
| 20260505041518 | 16 | 229 | 4.8 | 14.5 | 0.00 | 0.00 | 0.00 | 55 | 1009.8 |
| 20260505040016 | 17 | 161 | 3.2 | 12.9 | 0.00 | 0.00 | 0.00 | 53 | 1009.6 |
| 20260505034515 | 17 | 211 | 4.8 | 12.9 | 0.00 | 0.00 | 0.00 | 52 | 1009.5 |
| 20260505033017 | 17 | 216 | 3.2 | 11.3 | 0.00 | 0.00 | 0.00 | 52 | 1009.5 |
| 20260505031514 | 17 | 193 | 4.8 | 11.3 | 0.00 | 0.00 | 0.00 | 51 | 1009.5 |
| 20260505030014 | 17 | 194 | 3.2 | 14.5 | 0.00 | 0.00 | 0.00 | 51 | 1009.7 |
| 20260505024513 | 17 | 216 | 1.6 | 17.7 | 0.00 | 0.00 | 0.00 | 51 | 1009.7 |
| 20260505023013 | 17 | 198 | 1.6 | 8.0 | 0.00 | 0.00 | 0.00 | 50 | 1009.7 |
| 20260505021514 | 17 | 148 | 4.8 | 14.5 | 0.00 | 0.00 | 0.00 | 49 | 1009.9 |
| 20260505020016 | 17 | 242 | 3.2 | 11.3 | 0.00 | 0.00 | 0.00 | 49 | 1010.0 |
| 20260505014515 | 17 | 173 | 3.2 | 8.0 | 0.00 | 0.00 | 0.00 | 49 | 1009.9 |
| 20260505013011 | 17 | 219 | 3.2 | 9.7 | 0.00 | 0.00 | 0.00 | 49 | 1009.8 |
| 20260505011509 | 17 | 174 | 1.6 | 9.7 | 0.00 | 0.00 | 0.00 | 50 | 1009.7 |
| 20260505010010 | 18 | 225 | 1.6 | 6.4 | 0.00 | 0.00 | 0.00 | 48 | 1009.6 |
| 20260505004515 | 18 | 236 | 3.2 | 8.0 | 0.00 | 0.00 | 0.00 | 46 | 1009.4 |
| 20260505003009 | 18 | 208 | 1.6 | 8.0 | 0.00 | 0.00 | 0.00 | 44 | 1009.3 |
| 20260505001508 | 19 | 211 | 3.2 | 11.3 | 0.00 | 0.00 | 0.00 | 43 | 1009.3 |
| 20260505000011 | 20 | 225 | 6.4 | 12.9 | 0.00 | 0.00 | 0.00 | 42 | 1009.2 |
| 20260504234507 | 20 | 145 | 4.8 | 14.5 | 0.00 | 0.00 | 0.00 | 41 | 1009.1 |
| 20260504233007 | 20 | 192 | 4.8 | 16.1 | 0.00 | 0.00 | 0.00 | 40 | 1009.1 |
| 20260504231506 | 21 | 223 | 4.8 | 24.1 | 0.00 | 0.00 | 0.00 | 39 | 1009.0 |
| 20260504230006 | 21 | 178 | 6.4 | 14.5 | 0.00 | 0.00 | 0.00 | 38 | 1009.0 |
| 20260504224505 | 21 | 67 | 6.4 | 22.5 | 0.00 | 0.00 | 0.00 | 38 | 1009.0 |
| 20260504223005 | 21 | 186 | 6.4 | 20.9 | 0.00 | 0.00 | 0.00 | 38 | 1009.1 |
| 20260504221504 | 22 | 121 | 8.0 | 19.3 | 0.00 | 0.00 | 0.00 | 37 | 1009.1 |
| 20260504220003 | 22 | 247 | 8.0 | 19.3 | 0.00 | 0.00 | 0.00 | 37 | 1009.2 |
| 20260504214503 | 22 | 219 | 6.4 | 22.5 | 0.00 | 0.00 | 0.00 | 37 | 1009.2 |
| 20260504213002 | 22 | 190 | 6.4 | 20.9 | 0.00 | 0.00 | 0.00 | 37 | 1009.2 |
| 20260504211506 | 22 | 177 | 11.3 | 24.1 | 0.00 | 0.00 | 0.00 | 37 | 1009.2 |
| 20260504210001 | 22 | 224 | 1.6 | 16.1 | 0.00 | 0.00 | 0.00 | 38 | 1009.2 |
| 20260504204627 | 22 | 221 | 4.8 | 16.1 | 0.00 | 0.00 | 0.00 | 39 | 1009.1 |
| 20260504203135 | 22 | 198 | 8.0 | 14.5 | 0.00 | 0.00 | 0.00 | 37 | 1009.2 |
| 20260504201557 | 22 | 167 | 11.3 | 25.7 | 0.00 | 0.00 | 0.00 | 37 | 1009.5 |
| 20260504200055 | 22 | 173 | 6.4 | 20.9 | 0.00 | 0.00 | 0.00 | 37 | 1009.6 |
| 20260504194553 | 22 | 217 | 11.3 | 20.9 | 0.00 | 0.00 | 0.00 | 36 | 1009.7 |
| 20260504193052 | 21 | 178 | 4.8 | 19.3 | 0.00 | 0.00 | 0.00 | 37 | 1010.0 |
| 20260504191553 | 21 | 282 | 8.0 | 19.3 | 0.00 | 0.00 | 0.00 | 37 | 1010.1 |
| 20260504190052 | 21 | 211 | 6.4 | 32.2 | 0.00 | 0.00 | 0.00 | 37 | 1010.2 |
| 20260504184544 | 21 | 152 | 4.8 | 20.9 | 0.00 | 0.00 | 0.00 | 40 | 1010.5 |
| 20260504183042 | 21 | 189 | 8.0 | 16.1 | 0.00 | 0.00 | 0.00 | 40 | 1010.6 |
| 20260504181540 | 20 | 254 | 12.9 | 24.1 | 0.00 | 0.00 | 0.00 | 38 | 1011.0 |
| 20260504180038 | 20 | 88 | 4.8 | 19.3 | 0.00 | 0.00 | 0.00 | 37 | 1011.2 |
| 20260504174538 | 20 | 253 | 6.4 | 22.5 | 0.00 | 0.00 | 0.00 | 40 | 1011.4 |
| 20260504173039 | 20 | 152 | 9.7 | 19.3 | 0.00 | 0.00 | 0.00 | 38 | 1011.5 |
| 20260504171532 | 20 | 184 | 6.4 | 22.5 | 0.00 | 0.00 | 0.00 | 41 | 1011.8 |
| 20260504081512 | 9 | 200 | 6.4 | 12.9 | 0.00 | 0.00 | 0.00 | 51 | 1014.4 |
| 20260504044554 | 10 | 193 | 6.4 | 16.1 | 0.00 | 0.00 | 0.00 | 49 | 1014.3 |